Time,TemperatureF,DewpointF,PressureIn,WindDirection,WindDirectionDegrees,WindSpeedMPH,WindSpeedGustMPH,Humidity,HourlyPrecipIn,Conditions,Clouds,dailyrainin,SoftwareType,DateUTC
2013-11-16 00:00:00,51.1,45.1,29.60,NNW,344,10.0,32.0,0,0.05,,,0.10,meteohub,2013-11-16 08:00:00,
2013-11-16 00:05:00,51.3,45.1,29.59,NW,309,15.0,32.0,0,0.05,,,0.10,meteohub,2013-11-16 08:05:00,
2013-11-16 00:10:00,51.3,45.1,29.60,WNW,298,13.0,32.0,0,0.03,,,0.10,meteohub,2013-11-16 08:10:00,
2013-11-16 00:15:00,51.1,45.1,29.59,WNW,283,19.0,40.0,0,0.03,,,0.10,meteohub,2013-11-16 08:15:00,
2013-11-16 00:20:00,50.7,45.1,29.59,NW,305,21.0,40.0,0,0.03,,,0.10,meteohub,2013-11-16 08:20:00,
2013-11-16 00:26:00,50.4,44.6,29.59,West,262,13.0,40.0,0,0.03,,,0.10,meteohub,2013-11-16 08:26:00,
2013-11-16 00:31:00,50.4,45.0,29.59,West,260,15.0,29.0,0,0.02,,,0.10,meteohub,2013-11-16 08:31:00,
2013-11-16 00:36:00,50.5,44.4,29.60,WSW,244,11.0,29.0,0,0.02,,,0.10,meteohub,2013-11-16 08:36:00,
2013-11-16 00:41:00,50.7,44.4,29.60,SW,232,8.0,26.0,0,0.00,,,0.10,meteohub,2013-11-16 08:41:00,
2013-11-16 00:46:00,50.4,45.0,29.60,West,274,20.0,26.0,0,0.00,,,0.10,meteohub,2013-11-16 08:46:00,
2013-11-16 00:52:00,50.0,45.0,29.59,NW,319,19.0,26.0,0,0.00,,,0.10,meteohub,2013-11-16 08:52:00,
2013-11-16 00:57:00,49.8,45.0,29.59,SW,221,13.0,26.0,0,0.00,,,0.10,meteohub,2013-11-16 08:57:00,
2013-11-16 01:02:00,49.6,44.4,29.60,NE,44,10.0,34.0,0,0.00,,,0.10,meteohub,2013-11-16 09:02:00,
2013-11-16 01:07:00,49.8,44.4,29.60,North,355,12.0,34.0,0,0.00,,,0.10,meteohub,2013-11-16 09:07:00,
2013-11-16 01:12:00,49.8,44.4,29.60,ENE,63,6.0,31.0,0,0.00,,,0.10,meteohub,2013-11-16 09:12:00,
2013-11-16 01:17:00,50.2,44.4,29.59,NNW,327,12.0,31.0,0,0.00,,,0.10,meteohub,2013-11-16 09:17:00,
2013-11-16 01:22:00,50.2,44.4,29.59,West,276,14.0,31.0,0,0.00,,,0.10,meteohub,2013-11-16 09:22:00,
2013-11-16 01:27:00,50.4,45.0,29.59,NW,304,11.0,31.0,0,0.00,,,0.10,meteohub,2013-11-16 09:27:00,
2013-11-16 01:32:00,50.5,44.4,29.59,SE,130,8.0,22.0,0,0.00,,,0.10,meteohub,2013-11-16 09:32:00,
2013-11-16 01:37:00,50.7,44.4,29.59,WSW,238,7.0,22.0,0,0.00,,,0.10,meteohub,2013-11-16 09:37:00,
2013-11-16 01:42:00,51.1,45.0,29.58,NNW,346,17.0,26.0,0,0.00,,,0.10,meteohub,2013-11-16 09:42:00,
2013-11-16 01:47:00,50.9,45.0,29.58,NNE,12,12.0,26.0,0,0.00,,,0.10,meteohub,2013-11-16 09:47:00,
2013-11-16 01:52:00,50.7,45.0,29.59,WNW,286,19.0,32.0,0,0.00,,,0.10,meteohub,2013-11-16 09:52:00,
2013-11-16 01:57:00,50.9,45.0,29.58,WNW,298,16.0,32.0,0,0.00,,,0.10,meteohub,2013-11-16 09:57:00,
2013-11-16 02:02:00,50.9,45.0,29.58,WNW,287,12.0,32.0,0,0.00,,,0.10,meteohub,2013-11-16 10:02:00,
2013-11-16 02:07:00,50.9,44.6,29.59,West,276,24.0,36.0,0,0.00,,,0.10,meteohub,2013-11-16 10:07:00,
2013-11-16 02:12:00,50.4,44.6,29.59,West,263,12.0,36.0,0,0.00,,,0.10,meteohub,2013-11-16 10:12:00,
2013-11-16 02:18:00,50.5,44.6,29.59,East,99,11.0,36.0,0,0.00,,,0.10,meteohub,2013-11-16 10:18:00,
2013-11-16 02:23:00,50.5,44.6,29.59,NNW,331,20.0,36.0,0,0.00,,,0.10,meteohub,2013-11-16 10:23:00,
2013-11-16 02:28:00,50.4,44.1,29.59,WSW,238,11.0,29.0,0,0.00,,,0.10,meteohub,2013-11-16 10:28:00,
2013-11-16 02:33:00,50.5,44.6,29.59,NNW,327,22.0,29.0,0,0.00,,,0.10,meteohub,2013-11-16 10:33:00,
2013-11-16 02:38:00,50.5,44.6,29.59,North,355,15.0,28.0,0,0.00,,,0.10,meteohub,2013-11-16 10:38:00,
2013-11-16 02:43:00,50.7,44.6,29.59,NW,324,19.0,28.0,0,0.00,,,0.10,meteohub,2013-11-16 10:43:00,
2013-11-16 02:48:00,50.9,44.1,29.60,WSW,254,10.0,31.0,0,0.00,,,0.10,meteohub,2013-11-16 10:48:00,
2013-11-16 02:54:00,51.1,44.1,29.59,NW,319,19.0,31.0,0,0.00,,,0.10,meteohub,2013-11-16 10:54:00,
2013-11-16 02:59:00,51.3,44.6,29.60,NW,319,15.0,31.0,0,0.00,,,0.10,meteohub,2013-11-16 10:59:00,
2013-11-16 03:04:00,51.3,44.6,29.59,NNW,327,10.0,31.0,0,0.00,,,0.10,meteohub,2013-11-16 11:04:00,
2013-11-16 03:09:00,51.4,44.6,29.58,West,277,23.0,23.0,0,0.00,,,0.10,meteohub,2013-11-16 11:09:00,
2013-11-16 03:14:00,51.4,44.6,29.58,NW,311,13.0,20.0,0,0.00,,,0.10,meteohub,2013-11-16 11:14:00,
2013-11-16 03:20:00,51.6,44.6,29.59,WSW,248,12.0,29.0,0,0.00,,,0.10,meteohub,2013-11-16 11:20:00,
2013-11-16 03:25:00,51.8,44.6,29.58,West,266,20.0,29.0,0,0.00,,,0.10,meteohub,2013-11-16 11:25:00,
2013-11-16 03:30:00,51.1,44.6,29.59,WNW,290,18.0,31.0,0,0.00,,,0.10,meteohub,2013-11-16 11:30:00,
2013-11-16 03:35:00,50.4,44.6,29.59,WSW,254,14.0,49.0,0,0.00,,,0.10,meteohub,2013-11-16 11:35:00,
2013-11-16 03:40:00,50.2,44.4,29.59,NE,55,13.0,49.0,0,0.00,,,0.10,meteohub,2013-11-16 11:40:00,
2013-11-16 03:45:00,50.4,44.4,29.59,West,265,17.0,37.0,0,0.00,,,0.10,meteohub,2013-11-16 11:45:00,
2013-11-16 03:50:00,50.7,44.4,29.59,NW,315,19.0,37.0,0,0.00,,,0.10,meteohub,2013-11-16 11:50:00,
2013-11-16 03:56:00,50.9,44.4,29.60,West,265,10.0,30.0,0,0.00,,,0.10,meteohub,2013-11-16 11:56:00,
2013-11-16 04:01:00,50.7,44.4,29.60,NW,316,10.0,30.0,0,0.00,,,0.10,meteohub,2013-11-16 12:01:00,
2013-11-16 04:06:00,50.5,44.4,29.60,NNW,336,9.0,30.0,0,0.00,,,0.10,meteohub,2013-11-16 12:06:00,
2013-11-16 04:11:00,50.4,44.4,29.60,NW,308,7.0,30.0,0,0.00,,,0.10,meteohub,2013-11-16 12:11:00,
2013-11-16 04:16:00,50.4,44.4,29.60,WNW,288,15.0,15.0,0,0.00,,,0.10,meteohub,2013-11-16 12:16:00,
2013-11-16 04:21:00,50.5,44.4,29.59,NNW,329,17.0,17.0,0,0.00,,,0.10,meteohub,2013-11-16 12:21:00,
2013-11-16 04:27:00,50.7,43.9,29.60,NNE,23,11.0,31.0,0,0.00,,,0.10,meteohub,2013-11-16 12:27:00,
2013-11-16 04:32:00,50.5,43.9,29.60,WNW,302,19.0,31.0,0,0.00,,,0.10,meteohub,2013-11-16 12:32:00,
2013-11-16 04:37:00,50.4,43.9,29.60,West,275,18.0,31.0,0,0.00,,,0.10,meteohub,2013-11-16 12:37:00,
2013-11-16 04:42:00,50.4,43.7,29.61,West,259,11.0,31.0,0,0.00,,,0.10,meteohub,2013-11-16 12:42:00,
2013-11-16 04:47:00,50.4,43.7,29.61,NNW,331,12.0,29.0,0,0.00,,,0.10,meteohub,2013-11-16 12:47:00,
2013-11-16 04:52:00,50.4,43.7,29.61,WNW,294,11.0,29.0,0,0.00,,,0.10,meteohub,2013-11-16 12:52:00,
2013-11-16 04:57:00,50.5,43.7,29.61,WNW,288,14.0,28.0,0,0.00,,,0.10,meteohub,2013-11-16 12:57:00,
2013-11-16 05:02:00,50.5,43.7,29.61,NW,306,14.0,28.0,0,0.00,,,0.10,meteohub,2013-11-16 13:02:00,
2013-11-16 05:07:00,50.7,43.7,29.61,West,260,14.0,32.0,0,0.00,,,0.10,meteohub,2013-11-16 13:07:00,
2013-11-16 05:12:00,50.4,43.7,29.61,WNW,293,16.0,32.0,0,0.00,,,0.10,meteohub,2013-11-16 13:12:00,
2013-11-16 05:17:00,50.0,43.7,29.61,ESE,116,9.0,34.0,0,0.00,,,0.10,meteohub,2013-11-16 13:17:00,
2013-11-16 05:22:00,50.4,43.7,29.61,NW,320,21.0,34.0,0,0.00,,,0.10,meteohub,2013-11-16 13:22:00,
2013-11-16 05:27:00,50.5,43.7,29.61,West,265,19.0,25.0,0,0.00,,,0.10,meteohub,2013-11-16 13:27:00,
2013-11-16 05:32:00,50.4,43.7,29.62,NNW,330,12.0,25.0,0,0.00,,,0.10,meteohub,2013-11-16 13:32:00,
2013-11-16 05:37:00,50.0,43.7,29.62,NW,323,11.0,28.0,0,0.00,,,0.10,meteohub,2013-11-16 13:37:00,
2013-11-16 05:42:00,50.0,43.7,29.62,NNW,337,13.0,28.0,0,0.00,,,0.10,meteohub,2013-11-16 13:42:00,
2013-11-16 05:47:00,50.0,43.7,29.61,WSW,240,14.0,30.0,0,0.00,,,0.10,meteohub,2013-11-16 13:47:00,
2013-11-16 05:52:00,50.0,43.7,29.61,ENE,63,18.0,30.0,0,0.00,,,0.10,meteohub,2013-11-16 13:52:00,
2013-11-16 05:57:00,50.0,43.7,29.61,WNW,301,15.0,30.0,0,0.00,,,0.10,meteohub,2013-11-16 13:57:00,
2013-11-16 06:02:00,50.2,43.7,29.62,NW,306,21.0,30.0,0,0.00,,,0.10,meteohub,2013-11-16 14:02:00,
2013-11-16 06:07:00,50.4,43.7,29.62,SSW,202,15.0,28.0,0,0.00,,,0.10,meteohub,2013-11-16 14:07:00,
2013-11-16 06:12:00,50.4,43.7,29.62,ESE,119,13.0,28.0,0,0.00,,,0.10,meteohub,2013-11-16 14:12:00,
2013-11-16 06:17:00,50.4,43.7,29.62,ENE,67,14.0,28.0,0,0.00,,,0.10,meteohub,2013-11-16 14:17:00,
2013-11-16 06:22:00,50.4,43.7,29.62,North,11,9.0,28.0,0,0.00,,,0.10,meteohub,2013-11-16 14:22:00,
2013-11-16 06:27:00,50.4,43.7,29.62,NNE,21,10.0,28.0,0,0.00,,,0.10,meteohub,2013-11-16 14:27:00,
2013-11-16 06:32:00,50.4,43.7,29.62,WNW,285,25.0,28.0,0,0.00,,,0.10,meteohub,2013-11-16 14:32:00,
2013-11-16 06:37:00,49.8,43.7,29.62,North,9,10.0,28.0,0,0.00,,,0.10,meteohub,2013-11-16 14:37:00,
2013-11-16 06:42:00,49.6,43.7,29.63,West,275,15.0,28.0,0,0.00,,,0.10,meteohub,2013-11-16 14:42:00,
2013-11-16 06:47:00,49.8,43.7,29.63,WSW,240,7.0,28.0,0,0.00,,,0.10,meteohub,2013-11-16 14:47:00,
2013-11-16 06:52:00,49.8,43.7,29.63,NW,317,10.0,28.0,0,0.00,,,0.10,meteohub,2013-11-16 14:52:00,
2013-11-16 06:57:00,49.8,43.7,29.63,West,261,10.0,23.0,0,0.00,,,0.10,meteohub,2013-11-16 14:57:00,
2013-11-16 07:02:00,50.2,43.7,29.63,NW,313,9.0,23.0,0,0.00,,,0.10,meteohub,2013-11-16 15:02:00,
2013-11-16 07:07:00,50.4,43.7,29.63,SW,216,10.0,22.0,0,0.00,,,0.10,meteohub,2013-11-16 15:07:00,
2013-11-16 07:12:00,50.4,43.7,29.63,WNW,303,12.0,22.0,0,0.00,,,0.10,meteohub,2013-11-16 15:12:00,
2013-11-16 07:17:00,50.5,43.7,29.63,WNW,287,8.0,22.0,0,0.00,,,0.10,meteohub,2013-11-16 15:17:00,
2013-11-16 07:22:00,50.5,43.7,29.63,NE,55,11.0,22.0,0,0.00,,,0.10,meteohub,2013-11-16 15:22:00,
2013-11-16 07:27:00,50.5,43.7,29.64,WNW,292,21.0,24.0,0,0.00,,,0.10,meteohub,2013-11-16 15:27:00,
2013-11-16 07:32:00,50.7,43.7,29.64,NNE,26,14.0,24.0,0,0.00,,,0.10,meteohub,2013-11-16 15:32:00,
2013-11-16 07:37:00,51.1,43.7,29.64,NW,324,20.0,25.0,0,0.00,,,0.10,meteohub,2013-11-16 15:37:00,
2013-11-16 07:42:00,51.1,43.7,29.64,West,281,19.0,25.0,0,0.00,,,0.10,meteohub,2013-11-16 15:42:00,
2013-11-16 07:47:00,51.1,43.7,29.65,NW,325,12.0,25.0,0,0.00,,,0.10,meteohub,2013-11-16 15:47:00,
2013-11-16 07:52:00,51.1,43.7,29.65,WNW,294,11.0,25.0,0,0.00,,,0.10,meteohub,2013-11-16 15:52:00,
2013-11-16 07:57:00,50.9,43.7,29.65,WNW,285,13.0,25.0,0,0.00,,,0.10,meteohub,2013-11-16 15:57:00,
2013-11-16 08:02:00,50.9,43.7,29.66,NNW,328,10.0,25.0,0,0.00,,,0.10,meteohub,2013-11-16 16:02:00,
2013-11-16 08:07:00,51.1,43.7,29.65,North,11,11.0,21.0,0,0.00,,,0.10,meteohub,2013-11-16 16:07:00,
2013-11-16 08:12:00,51.1,43.7,29.65,SW,218,12.0,21.0,0,0.00,,,0.10,meteohub,2013-11-16 16:12:00,
2013-11-16 08:17:00,50.9,43.7,29.65,NNE,13,6.0,22.0,0,0.00,,,0.10,meteohub,2013-11-16 16:17:00,
2013-11-16 08:22:00,51.1,43.2,29.65,NW,313,19.0,22.0,0,0.00,,,0.10,meteohub,2013-11-16 16:22:00,
2013-11-16 08:27:00,51.3,43.2,29.66,West,274,14.0,24.0,0,0.00,,,0.10,meteohub,2013-11-16 16:27:00,
2013-11-16 08:32:00,51.3,43.2,29.66,NNW,334,12.0,24.0,0,0.00,,,0.10,meteohub,2013-11-16 16:32:00,
2013-11-16 08:37:00,51.3,43.2,29.66,West,268,10.0,23.0,0,0.00,,,0.10,meteohub,2013-11-16 16:37:00,
2013-11-16 08:42:00,51.4,43.2,29.67,WSW,237,14.0,23.0,0,0.00,,,0.10,meteohub,2013-11-16 16:42:00,
2013-11-16 08:47:00,51.4,43.2,29.67,WSW,253,10.0,22.0,0,0.00,,,0.10,meteohub,2013-11-16 16:47:00,
2013-11-16 08:52:00,52.0,43.2,29.67,West,278,12.0,22.0,0,0.00,,,0.10,meteohub,2013-11-16 16:52:00,
2013-11-16 08:57:00,52.3,43.2,29.68,North,11,10.0,22.0,0,0.00,,,0.10,meteohub,2013-11-16 16:57:00,
2013-11-16 09:02:00,52.2,43.2,29.68,WSW,240,10.0,22.0,0,0.00,,,0.10,meteohub,2013-11-16 17:02:00,
2013-11-16 09:07:00,52.0,43.3,29.68,North,350,14.0,22.0,0,0.00,,,0.10,meteohub,2013-11-16 17:07:00,
2013-11-16 09:12:00,51.8,43.3,29.68,NW,313,7.0,23.0,0,0.00,,,0.10,meteohub,2013-11-16 17:12:00,
2013-11-16 09:17:00,51.8,43.3,29.68,West,275,9.0,23.0,0,0.00,,,0.10,meteohub,2013-11-16 17:17:00,
2013-11-16 09:22:00,51.8,43.3,29.68,East,82,8.0,23.0,0,0.00,,,0.10,meteohub,2013-11-16 17:22:00,
2013-11-16 09:27:00,52.0,43.3,29.69,NNE,29,6.0,23.0,0,0.00,,,0.10,meteohub,2013-11-16 17:27:00,
2013-11-16 09:32:00,52.0,43.3,29.70,WNW,294,13.0,22.0,0,0.00,,,0.10,meteohub,2013-11-16 17:32:00,
2013-11-16 09:37:00,52.2,43.3,29.70,WNW,302,12.0,22.0,0,0.00,,,0.10,meteohub,2013-11-16 17:37:00,
2013-11-16 09:42:00,52.3,43.3,29.70,West,275,9.0,22.0,0,0.00,,,0.10,meteohub,2013-11-16 17:42:00,
2013-11-16 09:47:00,52.3,43.3,29.69,WNW,292,8.0,21.0,0,0.00,,,0.10,meteohub,2013-11-16 17:47:00,
2013-11-16 09:52:00,52.3,43.5,29.69,NNW,331,12.0,21.0,0,0.00,,,0.10,meteohub,2013-11-16 17:52:00,
2013-11-16 09:57:00,52.3,43.5,29.69,WNW,286,16.0,23.0,0,0.00,,,0.10,meteohub,2013-11-16 17:57:00,
2013-11-16 10:02:00,52.3,43.5,29.70,WNW,298,19.0,23.0,0,0.00,,,0.10,meteohub,2013-11-16 18:02:00,
2013-11-16 10:07:00,52.3,43.5,29.70,West,273,14.0,22.0,0,0.00,,,0.10,meteohub,2013-11-16 18:07:00,
2013-11-16 10:12:00,52.3,43.5,29.70,West,261,15.0,22.0,0,0.00,,,0.10,meteohub,2013-11-16 18:12:00,
2013-11-16 10:17:00,52.3,43.5,29.70,WNW,286,13.0,22.0,0,0.00,,,0.10,meteohub,2013-11-16 18:17:00,
2013-11-16 10:22:00,52.3,43.5,29.70,West,273,15.0,22.0,0,0.00,,,0.10,meteohub,2013-11-16 18:22:00,
2013-11-16 10:27:00,52.5,43.5,29.70,NNW,336,19.0,23.0,0,0.00,,,0.10,meteohub,2013-11-16 18:27:00,
2013-11-16 10:32:00,52.5,43.5,29.70,WSW,248,15.0,23.0,0,0.00,,,0.10,meteohub,2013-11-16 18:32:00,
2013-11-16 10:37:00,52.5,43.5,29.70,West,265,13.0,23.0,0,0.00,,,0.10,meteohub,2013-11-16 18:37:00,
2013-11-16 10:42:00,52.5,43.7,29.70,WNW,290,18.0,23.0,0,0.00,,,0.10,meteohub,2013-11-16 18:42:00,
2013-11-16 10:47:00,52.5,43.7,29.70,West,276,18.0,23.0,0,0.00,,,0.10,meteohub,2013-11-16 18:47:00,
2013-11-16 10:52:00,52.7,43.7,29.70,West,267,15.0,23.0,0,0.00,,,0.10,meteohub,2013-11-16 18:52:00,
2013-11-16 10:57:00,52.9,43.7,29.70,WNW,290,16.0,22.0,0,0.00,,,0.10,meteohub,2013-11-16 18:57:00,
2013-11-16 11:02:00,52.9,43.7,29.71,West,270,11.0,22.0,0,0.00,,,0.10,meteohub,2013-11-16 19:02:00,
2013-11-16 11:07:00,53.1,43.7,29.71,WNW,294,12.0,21.0,0,0.00,,,0.10,meteohub,2013-11-16 19:07:00,
2013-11-16 11:12:00,53.1,43.7,29.71,West,277,14.0,21.0,0,0.00,,,0.10,meteohub,2013-11-16 19:12:00,
2013-11-16 11:18:00,52.9,43.7,29.70,West,274,7.0,21.0,0,0.00,,,0.10,meteohub,2013-11-16 19:18:00,
2013-11-16 11:23:00,52.9,43.7,29.71,NW,306,9.0,21.0,0,0.00,,,0.10,meteohub,2013-11-16 19:23:00,
2013-11-16 11:28:00,52.7,43.7,29.71,North,351,10.0,23.0,0,0.00,,,0.10,meteohub,2013-11-16 19:28:00,
2013-11-16 11:33:00,52.7,43.7,29.71,WSW,257,15.0,23.0,0,0.00,,,0.10,meteohub,2013-11-16 19:33:00,
2013-11-16 11:38:00,52.7,43.7,29.71,West,267,10.0,22.0,0,0.00,,,0.10,meteohub,2013-11-16 19:38:00,
2013-11-16 11:43:00,52.9,43.7,29.71,WNW,283,8.0,22.0,0,0.00,,,0.10,meteohub,2013-11-16 19:43:00,
2013-11-16 11:49:00,52.9,43.7,29.71,NW,311,8.0,21.0,0,0.00,,,0.10,meteohub,2013-11-16 19:49:00,
2013-11-16 11:54:00,52.5,43.7,29.71,WNW,292,16.0,21.0,0,0.00,,,0.10,meteohub,2013-11-16 19:54:00,
2013-11-16 11:59:00,52.2,43.7,29.71,WNW,302,25.0,25.0,0,0.00,,,0.10,meteohub,2013-11-16 19:59:00,
2013-11-16 12:04:00,51.6,43.7,29.71,West,271,14.0,21.0,0,0.00,,,0.10,meteohub,2013-11-16 20:04:00,
2013-11-16 12:09:00,51.4,43.7,29.71,WSW,246,5.0,28.0,0,0.00,,,0.10,meteohub,2013-11-16 20:09:00,
2013-11-16 12:14:00,51.6,43.7,29.71,West,268,5.0,28.0,0,0.00,,,0.10,meteohub,2013-11-16 20:14:00,
2013-11-16 12:20:00,51.8,43.7,29.71,WSW,244,6.0,28.0,0,0.00,,,0.10,meteohub,2013-11-16 20:20:00,
2013-11-16 12:25:00,52.0,44.1,29.71,West,262,5.0,28.0,0,0.00,,,0.10,meteohub,2013-11-16 20:25:00,
2013-11-16 12:30:00,52.3,44.1,29.71,WSW,240,2.0,10.0,0,0.00,,,0.10,meteohub,2013-11-16 20:30:00,
2013-11-16 12:35:00,52.5,44.1,29.71,West,265,3.0,9.0,0,0.00,,,0.10,meteohub,2013-11-16 20:35:00,
2013-11-16 12:40:00,52.7,44.1,29.71,SW,231,3.0,9.0,0,0.00,,,0.10,meteohub,2013-11-16 20:40:00,
2013-11-16 12:45:00,52.7,44.1,29.71,West,264,7.0,9.0,0,0.00,,,0.10,meteohub,2013-11-16 20:45:00,
2013-11-16 12:51:00,52.7,44.1,29.71,West,273,21.0,21.0,0,0.00,,,0.10,meteohub,2013-11-16 20:51:00,
2013-11-16 12:56:00,52.7,44.1,29.70,West,272,23.0,23.0,0,0.00,,,0.10,meteohub,2013-11-16 20:56:00,
2013-11-16 13:01:00,52.9,44.1,29.71,West,263,11.0,21.0,0,0.00,,,0.10,meteohub,2013-11-16 21:01:00,
2013-11-16 13:06:00,52.9,44.1,29.71,West,271,14.0,21.0,0,0.00,,,0.10,meteohub,2013-11-16 21:06:00,
2013-11-16 13:11:00,52.9,44.1,29.71,West,268,14.0,24.0,0,0.00,,,0.10,meteohub,2013-11-16 21:11:00,
2013-11-16 13:16:00,53.1,44.1,29.71,West,263,15.0,24.0,0,0.00,,,0.10,meteohub,2013-11-16 21:16:00,
2013-11-16 13:21:00,53.1,44.1,29.72,West,260,14.0,24.0,0,0.00,,,0.10,meteohub,2013-11-16 21:21:00,
2013-11-16 13:27:00,52.9,44.1,29.70,West,263,28.0,28.0,0,0.00,,,0.10,meteohub,2013-11-16 21:27:00,
2013-11-16 13:32:00,51.1,44.1,29.71,SW,234,33.0,33.0,0,0.00,,,0.10,meteohub,2013-11-16 21:32:00,
2013-11-16 13:37:00,49.8,44.1,29.72,West,269,19.0,44.0,0,0.00,,,0.10,meteohub,2013-11-16 21:37:00,
2013-11-16 13:42:00,49.6,44.1,29.72,West,270,28.0,44.0,0,0.00,,,0.10,meteohub,2013-11-16 21:42:00,
2013-11-16 13:47:00,49.6,44.1,29.72,NW,326,13.0,43.0,0,0.00,,,0.10,meteohub,2013-11-16 21:47:00,
2013-11-16 13:52:00,50.0,44.1,29.72,West,270,6.0,43.0,0,0.00,,,0.10,meteohub,2013-11-16 21:52:00,
2013-11-16 13:57:00,50.2,44.1,29.72,SW,234,5.0,33.0,0,0.00,,,0.10,meteohub,2013-11-16 21:57:00,
2013-11-16 14:02:00,50.4,44.1,29.72,West,276,11.0,33.0,0,0.00,,,0.10,meteohub,2013-11-16 22:02:00,
2013-11-16 14:07:00,50.5,44.1,29.72,WNW,282,6.0,15.0,0,0.00,,,0.10,meteohub,2013-11-16 22:07:00,
2013-11-16 14:12:00,50.7,44.1,29.72,WSW,249,12.0,15.0,0,0.00,,,0.10,meteohub,2013-11-16 22:12:00,
2013-11-16 14:17:00,50.9,44.1,29.72,WSW,254,4.0,14.0,0,0.00,,,0.10,meteohub,2013-11-16 22:17:00,
2013-11-16 14:22:00,51.1,44.1,29.72,WSW,242,8.0,14.0,0,0.00,,,0.10,meteohub,2013-11-16 22:22:00,
2013-11-16 14:27:00,51.3,44.1,29.73,WSW,253,10.0,14.0,0,0.00,,,0.10,meteohub,2013-11-16 22:27:00,
2013-11-16 14:32:00,51.3,44.1,29.72,West,259,11.0,14.0,0,0.00,,,0.10,meteohub,2013-11-16 22:32:00,
2013-11-16 14:37:00,51.3,44.1,29.72,West,264,17.0,18.0,0,0.00,,,0.10,meteohub,2013-11-16 22:37:00,
2013-11-16 14:42:00,51.3,44.1,29.72,West,261,14.0,18.0,0,0.00,,,0.10,meteohub,2013-11-16 22:42:00,
2013-11-16 14:47:00,51.4,44.1,29.72,WSW,244,12.0,25.0,0,0.00,,,0.10,meteohub,2013-11-16 22:47:00,
2013-11-16 14:52:00,51.4,44.1,29.73,West,264,14.0,25.0,0,0.00,,,0.10,meteohub,2013-11-16 22:52:00,
2013-11-16 14:57:00,51.6,44.1,29.73,West,264,8.0,25.0,0,0.00,,,0.10,meteohub,2013-11-16 22:57:00,
2013-11-16 15:02:00,51.6,44.1,29.73,WNW,293,14.0,25.0,0,0.00,,,0.10,meteohub,2013-11-16 23:02:00,
2013-11-16 15:08:00,51.6,44.1,29.73,WSW,244,12.0,20.0,0,0.00,,,0.10,meteohub,2013-11-16 23:08:00,
2013-11-16 15:13:00,51.8,44.1,29.73,West,261,6.0,20.0,0,0.00,,,0.10,meteohub,2013-11-16 23:13:00,
2013-11-16 15:18:00,51.6,44.1,29.73,WNW,286,6.0,20.0,0,0.00,,,0.10,meteohub,2013-11-16 23:18:00,
2013-11-16 15:23:00,51.6,44.1,29.74,West,266,6.0,20.0,0,0.00,,,0.10,meteohub,2013-11-16 23:23:00,
2013-11-16 15:28:00,51.8,44.1,29.74,SSW,209,4.0,14.0,0,0.00,,,0.10,meteohub,2013-11-16 23:28:00,
2013-11-16 15:34:00,52.0,44.1,29.74,West,261,8.0,14.0,0,0.00,,,0.10,meteohub,2013-11-16 23:34:00,
2013-11-16 15:39:00,51.8,44.1,29.74,WNW,292,14.0,14.0,0,0.00,,,0.10,meteohub,2013-11-16 23:39:00,
2013-11-16 15:44:00,51.8,44.1,29.74,West,279,4.0,13.0,0,0.00,,,0.10,meteohub,2013-11-16 23:44:00,
2013-11-16 15:49:00,51.8,44.1,29.74,WNW,290,20.0,20.0,0,0.00,,,0.10,meteohub,2013-11-16 23:49:00,
2013-11-16 15:54:00,51.3,44.1,29.74,West,281,16.0,16.0,0,0.00,,,0.10,meteohub,2013-11-16 23:54:00,
2013-11-16 15:59:00,50.7,44.1,29.74,WSW,254,8.0,33.0,0,0.00,,,0.10,meteohub,2013-11-16 23:59:00,
2013-11-16 16:04:00,50.7,44.1,29.74,West,278,12.0,33.0,0,0.00,,,0.10,meteohub,2013-11-17 00:04:00,
2013-11-16 16:10:00,50.7,43.7,29.74,SW,233,11.0,25.0,0,0.00,,,0.00,meteohub,2013-11-17 00:10:00,
2013-11-16 16:15:00,50.7,43.7,29.74,WSW,257,8.0,25.0,0,0.00,,,0.00,meteohub,2013-11-17 00:15:00,
2013-11-16 16:20:00,50.9,43.7,29.74,WSW,250,6.0,18.0,0,0.00,,,0.00,meteohub,2013-11-17 00:20:00,
2013-11-16 16:25:00,51.1,43.7,29.74,WSW,248,6.0,18.0,0,0.00,,,0.00,meteohub,2013-11-17 00:25:00,
2013-11-16 16:30:00,51.1,43.7,29.75,WSW,246,6.0,17.0,0,0.00,,,0.00,meteohub,2013-11-17 00:30:00,
2013-11-16 16:35:00,51.1,43.7,29.75,WSW,258,20.0,20.0,0,0.00,,,0.00,meteohub,2013-11-17 00:35:00,
2013-11-16 16:40:00,50.5,43.7,29.75,SW,226,11.0,28.0,0,0.00,,,0.00,meteohub,2013-11-17 00:40:00,
2013-11-16 16:46:00,50.2,43.7,29.75,WSW,238,13.0,28.0,0,0.00,,,0.00,meteohub,2013-11-17 00:46:00,
2013-11-16 16:51:00,50.4,43.7,29.75,West,273,11.0,32.0,0,0.00,,,0.00,meteohub,2013-11-17 00:51:00,
2013-11-16 16:56:00,50.4,43.7,29.75,West,263,10.0,32.0,0,0.00,,,0.00,meteohub,2013-11-17 00:56:00,
2013-11-16 17:01:00,50.4,43.7,29.76,West,262,10.0,32.0,0,0.00,,,0.00,meteohub,2013-11-17 01:01:00,
2013-11-16 17:06:00,50.5,43.7,29.75,SW,219,2.0,32.0,0,0.00,,,0.00,meteohub,2013-11-17 01:06:00,
2013-11-16 17:11:00,50.5,43.7,29.76,West,261,7.0,18.0,0,0.00,,,0.00,meteohub,2013-11-17 01:11:00,
2013-11-16 17:17:00,50.7,43.7,29.76,West,280,19.0,19.0,0,0.00,,,0.00,meteohub,2013-11-17 01:17:00,
2013-11-16 17:22:00,50.7,43.7,29.75,NW,311,16.0,16.0,0,0.00,,,0.00,meteohub,2013-11-17 01:22:00,
2013-11-16 17:27:00,50.5,43.7,29.76,NW,319,11.0,16.0,0,0.00,,,0.00,meteohub,2013-11-17 01:27:00,
2013-11-16 17:32:00,50.7,43.7,29.76,WNW,294,19.0,30.0,0,0.00,,,0.00,meteohub,2013-11-17 01:32:00,
2013-11-16 17:37:00,51.1,43.7,29.77,SW,215,13.0,30.0,0,0.00,,,0.00,meteohub,2013-11-17 01:37:00,
2013-11-16 17:42:00,51.1,43.7,29.77,West,275,11.0,25.0,0,0.00,,,0.00,meteohub,2013-11-17 01:42:00,
2013-11-16 17:47:00,51.1,43.7,29.77,WSW,257,8.0,25.0,0,0.00,,,0.00,meteohub,2013-11-17 01:47:00,
2013-11-16 17:52:00,51.1,43.7,29.77,WSW,253,11.0,22.0,0,0.00,,,0.00,meteohub,2013-11-17 01:52:00,
2013-11-16 17:57:00,50.9,43.7,29.77,WNW,282,13.0,22.0,0,0.00,,,0.00,meteohub,2013-11-17 01:57:00,
2013-11-16 18:02:00,51.1,43.7,29.77,SW,236,8.0,18.0,0,0.00,,,0.00,meteohub,2013-11-17 02:02:00,
2013-11-16 18:07:00,51.3,43.7,29.77,WSW,246,3.0,18.0,0,0.00,,,0.00,meteohub,2013-11-17 02:07:00,
2013-11-16 18:12:00,51.3,43.7,29.77,SW,225,3.0,18.0,0,0.00,,,0.00,meteohub,2013-11-17 02:12:00,
2013-11-16 18:17:00,51.3,43.7,29.77,West,274,4.0,18.0,0,0.00,,,0.00,meteohub,2013-11-17 02:17:00,
2013-11-16 18:22:00,51.3,43.7,29.77,WNW,289,8.0,13.0,0,0.00,,,0.00,meteohub,2013-11-17 02:22:00,
2013-11-16 18:27:00,51.3,43.7,29.77,West,270,5.0,13.0,0,0.00,,,0.00,meteohub,2013-11-17 02:27:00,
2013-11-16 18:32:00,51.3,43.7,29.77,West,277,9.0,15.0,0,0.00,,,0.00,meteohub,2013-11-17 02:32:00,
2013-11-16 18:37:00,51.3,43.7,29.77,West,262,6.0,15.0,0,0.00,,,0.00,meteohub,2013-11-17 02:37:00,
2013-11-16 18:42:00,51.1,43.7,29.77,SW,229,4.0,15.0,0,0.00,,,0.00,meteohub,2013-11-17 02:42:00,
2013-11-16 18:47:00,51.1,43.7,29.77,West,274,6.0,15.0,0,0.00,,,0.00,meteohub,2013-11-17 02:47:00,
2013-11-16 18:52:00,50.9,43.7,29.77,WSW,252,3.0,13.0,0,0.00,,,0.00,meteohub,2013-11-17 02:52:00,
2013-11-16 18:57:00,50.9,43.7,29.77,West,279,5.0,13.0,0,0.00,,,0.00,meteohub,2013-11-17 02:57:00,
2013-11-16 19:02:00,50.9,43.7,29.77,WSW,257,7.0,11.0,0,0.00,,,0.00,meteohub,2013-11-17 03:02:00,
2013-11-16 19:07:00,50.9,43.7,29.78,SW,227,6.0,11.0,0,0.00,,,0.00,meteohub,2013-11-17 03:07:00,
2013-11-16 19:12:00,50.9,43.7,29.78,WSW,246,2.0,11.0,0,0.00,,,0.00,meteohub,2013-11-17 03:12:00,
2013-11-16 19:17:00,51.1,43.7,29.78,WSW,257,6.0,11.0,0,0.00,,,0.00,meteohub,2013-11-17 03:17:00,
2013-11-16 19:22:00,51.1,43.7,29.78,NNE,23,11.0,11.0,0,0.00,,,0.00,meteohub,2013-11-17 03:22:00,
2013-11-16 19:28:00,50.7,43.7,29.78,NW,317,11.0,11.0,0,0.00,,,0.00,meteohub,2013-11-17 03:28:00,
2013-11-16 19:33:00,50.5,43.7,29.78,WSW,246,6.0,28.0,0,0.00,,,0.00,meteohub,2013-11-17 03:33:00,
2013-11-16 19:38:00,50.5,43.7,29.78,West,277,15.0,28.0,0,0.00,,,0.00,meteohub,2013-11-17 03:38:00,
2013-11-16 19:43:00,50.5,43.7,29.78,West,263,12.0,26.0,0,0.00,,,0.00,meteohub,2013-11-17 03:43:00,
2013-11-16 19:48:00,50.7,43.7,29.78,SW,216,6.0,26.0,0,0.00,,,0.00,meteohub,2013-11-17 03:48:00,
2013-11-16 19:53:00,50.9,43.7,29.78,WSW,238,6.0,19.0,0,0.00,,,0.00,meteohub,2013-11-17 03:53:00,
2013-11-16 19:59:00,51.1,43.7,29.78,West,275,8.0,19.0,0,0.00,,,0.00,meteohub,2013-11-17 03:59:00,
2013-11-16 20:04:00,51.1,43.7,29.78,WSW,239,8.0,14.0,0,0.00,,,0.00,meteohub,2013-11-17 04:04:00,
2013-11-16 20:09:00,51.3,43.7,29.78,SW,230,5.0,14.0,0,0.00,,,0.00,meteohub,2013-11-17 04:09:00,
2013-11-16 20:14:00,51.3,43.7,29.78,SW,231,8.0,14.0,0,0.00,,,0.00,meteohub,2013-11-17 04:14:00,
2013-11-16 20:19:00,51.3,43.7,29.78,SW,219,7.0,13.0,0,0.00,,,0.00,meteohub,2013-11-17 04:19:00,
2013-11-16 20:25:00,51.3,43.7,29.79,SW,220,6.0,13.0,0,0.00,,,0.00,meteohub,2013-11-17 04:25:00,
2013-11-16 20:30:00,51.3,43.7,29.79,SW,215,4.0,13.0,0,0.00,,,0.00,meteohub,2013-11-17 04:30:00,
2013-11-16 20:35:00,51.3,43.7,29.79,SW,216,2.0,10.0,0,0.00,,,0.00,meteohub,2013-11-17 04:35:00,
2013-11-16 20:40:00,51.3,43.7,29.79,WSW,239,5.0,10.0,0,0.00,,,0.00,meteohub,2013-11-17 04:40:00,
2013-11-16 20:45:00,51.4,43.7,29.80,SW,225,4.0,10.0,0,0.00,,,0.00,meteohub,2013-11-17 04:45:00,
2013-11-16 20:51:00,51.6,43.7,29.80,WSW,237,5.0,10.0,0,0.00,,,0.00,meteohub,2013-11-17 04:51:00,
2013-11-16 20:56:00,51.6,43.7,29.80,SW,227,4.0,10.0,0,0.00,,,0.00,meteohub,2013-11-17 04:56:00,
2013-11-16 21:01:00,51.6,43.7,29.80,WSW,244,8.0,13.0,0,0.00,,,0.00,meteohub,2013-11-17 05:01:00,
2013-11-16 21:02:00,51.6,43.7,29.80,WSW,239,7.0,13.0,0,0.00,,,0.00,meteohub,2013-11-17 05:02:00,
2013-11-16 21:03:00,51.6,43.7,29.80,WSW,255,10.0,13.0,0,0.00,,,0.00,meteohub,2013-11-17 05:03:00,
2013-11-16 21:07:00,51.8,43.7,29.80,West,263,4.0,13.0,0,0.00,,,0.00,meteohub,2013-11-17 05:07:00,
2013-11-16 21:12:00,51.6,43.7,29.80,WSW,255,7.0,13.0,0,0.00,,,0.00,meteohub,2013-11-17 05:12:00,
2013-11-16 21:13:00,51.6,43.7,29.80,West,261,8.0,13.0,0,0.00,,,0.00,meteohub,2013-11-17 05:13:00,
2013-11-16 21:18:00,51.8,43.7,29.80,WSW,251,4.0,13.0,0,0.00,,,0.00,meteohub,2013-11-17 05:18:00,
2013-11-16 21:23:00,52.0,43.7,29.80,SW,232,5.0,14.0,0,0.00,,,0.00,meteohub,2013-11-17 05:23:00,
2013-11-16 21:29:00,52.0,43.7,29.80,SW,219,4.0,14.0,0,0.00,,,0.00,meteohub,2013-11-17 05:29:00,
2013-11-16 21:34:00,51.8,43.7,29.81,SW,229,6.0,14.0,0,0.00,,,0.00,meteohub,2013-11-17 05:34:00,
2013-11-16 21:39:00,51.6,43.7,29.80,WSW,238,3.0,11.0,0,0.00,,,0.00,meteohub,2013-11-17 05:39:00,
2013-11-16 21:44:00,51.6,43.7,29.80,SW,229,4.0,11.0,0,0.00,,,0.00,meteohub,2013-11-17 05:44:00,
2013-11-16 21:50:00,51.8,43.7,29.81,SW,224,1.0,11.0,0,0.00,,,0.00,meteohub,2013-11-17 05:50:00,
2013-11-16 21:55:00,51.8,43.7,29.81,SW,215,0.0,11.0,0,0.00,,,0.00,meteohub,2013-11-17 05:55:00,
2013-11-16 22:00:00,51.3,43.7,29.80,SSW,211,3.0,11.0,0,0.00,,,0.00,meteohub,2013-11-17 06:00:00,
2013-11-16 22:06:00,50.4,43.7,29.81,SSW,211,0.0,11.0,0,0.00,,,0.00,meteohub,2013-11-17 06:06:00,
2013-11-16 22:11:00,49.6,43.7,29.81,SSW,201,2.0,5.0,0,0.00,,,0.00,meteohub,2013-11-17 06:11:00,
2013-11-16 22:16:00,49.1,43.7,29.81,SSW,199,0.0,5.0,0,0.00,,,0.00,meteohub,2013-11-17 06:16:00,
2013-11-16 22:21:00,48.9,43.7,29.81,SSW,198,4.0,8.0,0,0.00,,,0.00,meteohub,2013-11-17 06:21:00,
2013-11-16 22:26:00,49.5,43.7,29.81,WSW,238,7.0,8.0,0,0.00,,,0.00,meteohub,2013-11-17 06:26:00,
2013-11-16 22:31:00,50.7,43.7,29.81,WNW,284,7.0,8.0,0,0.00,,,0.00,meteohub,2013-11-17 06:31:00,
2013-11-16 22:37:00,50.9,43.7,29.81,WSW,250,4.0,8.0,0,0.00,,,0.00,meteohub,2013-11-17 06:37:00,
2013-11-16 22:42:00,50.9,43.7,29.81,West,264,6.0,24.0,0,0.00,,,0.00,meteohub,2013-11-17 06:42:00,
2013-11-16 22:47:00,51.1,43.7,29.81,West,266,10.0,24.0,0,0.00,,,0.00,meteohub,2013-11-17 06:47:00,
2013-11-16 22:52:00,50.9,43.7,29.81,West,273,9.0,21.0,0,0.00,,,0.00,meteohub,2013-11-17 06:52:00,
2013-11-16 22:57:00,50.9,43.7,29.81,SW,232,11.0,21.0,0,0.00,,,0.00,meteohub,2013-11-17 06:57:00,
2013-11-16 23:02:00,50.9,43.7,29.81,West,263,7.0,21.0,0,0.00,,,0.00,meteohub,2013-11-17 07:02:00,
2013-11-16 23:07:00,50.9,43.7,29.81,SW,234,5.0,21.0,0,0.00,,,0.00,meteohub,2013-11-17 07:07:00,
2013-11-16 23:12:00,51.1,43.7,29.81,SW,234,10.0,19.0,0,0.00,,,0.00,meteohub,2013-11-17 07:12:00,
2013-11-16 23:17:00,51.1,43.7,29.82,SSW,205,7.0,19.0,0,0.00,,,0.00,meteohub,2013-11-17 07:17:00,
2013-11-16 23:22:00,50.7,43.7,29.82,SW,223,10.0,18.0,0,0.00,,,0.00,meteohub,2013-11-17 07:22:00,
2013-11-16 23:27:00,50.7,43.7,29.82,SSE,165,9.0,18.0,0,0.00,,,0.00,meteohub,2013-11-17 07:27:00,
2013-11-16 23:32:00,50.7,43.7,29.82,South,186,7.0,18.0,0,0.00,,,0.00,meteohub,2013-11-17 07:32:00,
2013-11-16 23:37:00,50.7,43.7,29.82,SSE,163,6.0,18.0,0,0.00,,,0.00,meteohub,2013-11-17 07:37:00,
2013-11-16 23:42:00,50.7,43.7,29.83,South,171,12.0,17.0,0,0.00,,,0.00,meteohub,2013-11-17 07:42:00,
2013-11-16 23:47:00,50.9,43.7,29.83,SSW,202,8.0,17.0,0,0.00,,,0.00,meteohub,2013-11-17 07:47:00,
2013-11-16 23:52:00,50.9,44.1,29.83,SSE,160,9.0,15.0,0,0.00,,,0.00,meteohub,2013-11-17 07:52:00,
2013-11-16 23:57:00,50.9,44.1,29.83,SSW,194,7.0,15.0,0,0.00,,,0.00,meteohub,2013-11-17 07:57:00,